Location: El Bakhil
(32.7726°N, 5.5387°W)
Time: 11:46:45
(UTC+00:00)

CZ-4B R/B - Pass Details

Date: 03 March 2021
Orbit: 388 x 454 km, 97.6° (Epoch: 15 April)

Event Time Altitude Azimuth Distance (km) Brightness Sun altitude
Rises 18:41:58 0° 4° (N) 2,290 4.9 -5.2°
Reaches altitude 10° 18:43:58 10° 359° (N) 1,435 3.9 -5.6°
Maximum altitude 18:46:54 46° 284° (WNW) 545 2.4 -6.2°
Drops below altitude 10° 18:49:53 10° 210° (SSW) 1,450 4.5 -6.9°
Sets 18:51:54 0° 204° (SSW) 2,316 5.4 -7.3°
